Home   Weather   Memmingen   Past weeks

Flag for Germany Past Weather in Memmingen, Bavaria, Germany — Yesterday and Last 2 Weeks

Now
16 °F

Ice fog.


Feels Like: 16 °F
Forecast: 13 / 20 °F
Wind: 2 mph from North

Location: Laupheim Airport

Current Time: Jan 24, 2017 at 10:23:26 am

Latest Report: Jan 24, 2017 at 9:36 am


Visibility: 2 mi

Pressure: 30.24 "Hg (27.97 "Hg at 602m altitude)

Humidity: 86%

Dew Point: 12 °F

Location of MemmingenLocation

Past Weather in Memmingen — Graph

°F

Memmingen Temperature Yesterday

Maximum temperature yesterday: 23 °F (at 1:04 pm)
Minimum temperature yesterday: 9 °F (at 12:20 am)
Average temperature yesterday: 15 °F

High & Low Weather Summary for the Past Weeks

 TemperatureHumidityPressure
High41 °F (Jan 13, 1:20 am)100% (Jan 11, 2:20 am)30.45 "Hg (Jan 11, 2:20 am)
Low5 °F (Jan 22, 3:20 am)51% (Jan 13, 11:20 am)29.39 "Hg (Jan 13, 1:20 am)
Average23 °F84%30.11 "Hg
* Reported Jan 9 8:20 am — Jan 24 8:20 am, Memmingen, Weather by CustomWeather, © 2017

Note: Actual official high and low records may vary slightly from our data, if they occured in-between our weather recording intervals... More about our weather records

Advertising

Memmingen Weather History for the Previous 24 Hours

Scroll right to see more
 ConditionsComfort  
Time TempWeatherWind HumidityBarometerVisibility
8:20 am
Tue, Jan 24
14 °FIce fog.2 mph92%30.24 "Hg2 mi
7:20 am12 °FIce fog.1 mph92%30.21 "Hg2 mi
6:20 am12 °FIce fog.2 mph85%30.21 "Hg2 mi
5:20 am12 °FIce fog.1 mph85%30.21 "Hg2 mi
4:20 am10 °FIce fog.1 mph92%30.18 "Hg1 mi
3:20 am10 °FIce fog.No wind85%30.18 "Hg1 mi
2:20 am9 °FIce fog.No wind85%30.18 "Hg0 mi
1:20 am7 °FIce fog.2 mph92%30.18 "Hg0 mi
12:20 am9 °FIce fog.1 mph92%30.18 "Hg0 mi
11:20 pm
Mon, Jan 23
10 °FIce fog.2 mph85%30.18 "Hg1 mi
10:20 pm10 °FIce fog.1 mph85%30.18 "Hg1 mi
9:20 pm10 °FIce fog.1 mph92%30.18 "Hg2 mi
8:20 pm12 °FIce fog.1 mph92%30.18 "Hg2 mi
7:20 pm14 °FIce fog.1 mph92%30.18 "Hg2 mi
6:20 pm16 °FIce fog.No wind86%30.18 "Hg2 mi
5:34 pm18 °FIce fog.1 mph93%30.18 "Hg2 mi
4:20 pm19 °FIce fog.2 mph93%30.18 "Hg3 mi
3:20 pm21 °FPassing clouds.1 mph93%30.15 "Hg4 mi
2:20 pm21 °FPassing clouds.1 mph86%30.15 "Hg4 mi
1:31 pm19 °FIce fog.1 mph86%30.15 "Hg3 mi
1:04 pm23 °FIce fog.1 mph93%30.18 "Hg2 mi
12:45 pm18 °FIce fog.1 mph86%30.18 "Hg2 mi
12:30 pm18 °FIce fog.No wind86%30.18 "Hg1 mi
12:01 pm16 °FIce fog.No wind86%30.18 "Hg1 mi
11:20 am14 °FIce fog.No wind85%30.21 "Hg0 mi
10:20 am12 °FIce fog.1 mph92%30.21 "Hg0 mi
Weather by CustomWeather, © 2017

See weather overviewHow to use our weather pages